Location: Krakow
(50.0830°N, 19.9170°E)
Time: 07:05:04
(UTC+02:00)

Tiros 1 despin weight - Pass Details

Date: 20 March 2026
Orbit: 555 x 592 km, 48.2° (Epoch: 18 April)

Event Time Altitude Azimuth Distance (km) Brightness Sun altitude
Rises 05:56:45 0° 268° (W) 2,817 ? 1.3°
Reaches altitude 10° 05:59:03 10° 266° (W) 1,912 ? 1.7°
Maximum altitude 06:03:24 69° 184° (S) 628 ? 2.4°
Drops below altitude 10° 06:07:43 10° 101° (ESE) 1,891 ? 3.1°
Sets 06:09:58 0° 99° (E) 2,783 ? 3.4°
